Location: Arbon
(43.0005°N, 0.7472°E)
Time: 10:47:56
(UTC+00:00)

Meteor 2-15 Rocket - Pass Details

Date: 22 April 2026
Orbit: 940 x 955 km, 82.5° (Epoch: 20 May)

Event Time Altitude Azimuth Distance (km) Brightness Sun altitude
Rises 19:42:16 0° 180° (S) 3,588 7.2 -10.0°
Reaches altitude 10° 19:44:44 10° 179° (S) 2,649 6.5 -10.4°
Maximum altitude 19:50:46 74° 95° (E) 982 4.4 -11.4°
Drops below altitude 10° 19:56:51 10° 12° (NNE) 2,676 7.0 -12.4°
Sets 19:59:22 0° 11° (N) 3,627 7.8 -12.8°
